Weather History for Prescott, AZ

Change the Weather History Date:

Monday, February 20, 2012

  Actual Average Record
Temperature  
Mean Temperature 38 °F 42 °F  
Max Temperature 54 °F 56 °F 72 °F (1981)
Min Temperature 21 °F 29 °F 8 °F (1955)
Degree Days  
Heating Degree Days 28    
Month to date heating degree days  
Since 1 July heating degree days  
Cooling Degree Days 0    
Month to date cooling degree days  
Year to date cooling degree days  
Moisture  
Dew Point 12 °F    
Average Humidity 44    
Maximum Humidity 78    
Minimum Humidity 11    
Precipitation  
Precipitation 0.00 in 0.05 in 0.60 in (1993)
Month to date precipitation 0.96  
Year to date precipitation 2.08  
Sea Level Pressure  
Sea Level Pressure 30.05 in    
Wind  
Wind Speed 2 mph (SSW)    
Max Wind Speed 8 mph    
Max Gust Speed -    
Visibility 10 miles    
Events      
T = Trace of Precipitation, MM = Missing Value Source: NWS Daily Summary

Daily Weather History Graph

Daily Weather History Graph

Search for Another Location

Airport:

Trip Planner

Search our weather history database for the weather conditions in past years. The results will help you decide how hot, cold, wet, or windy it might be!

Date:

Astronomy

Feb. 20, 2012 Rise Set
Actual Time 7:10 AM MST 6:17 PM MST
Civil Twilight 6:44 AM MST 6:42 PM MST
Nautical Twilight 6:15 AM MST 7:12 PM MST
Astronomical Twilight 5:46 AM MST 7:41 PM MST
Moon 6:07 AM MST (2/20) 5:26 PM MST (2/20)
Length of Visible Light 11h 58m
Length of Day
11h 07m
Waning Crescent, 1% of the Moon is Illuminated
Feb 20
Waning Crescent
Feb 21
New
Feb 29
First Quarter
Mar 8
Full
Mar 14
Last Quarter

Hourly Weather History & Observations

Time (MST) Temp. Windchill Dew Point Humidity Pressure Visibility Wind Dir Wind Speed Gust Speed Precip Events Conditions
12:53 AM 28.9 °F - 19.9 °F 69% 29.97 in 10.0 mi Calm Calm - N/A   Clear
1:53 AM 27.0 °F - 19.0 °F 72% 29.98 in 10.0 mi Calm Calm - N/A   Clear
2:53 AM 26.1 °F - 18.0 °F 71% 30.00 in 10.0 mi Calm Calm - N/A   Clear
3:53 AM 21.9 °F 17.2 °F 16.0 °F 78% 30.01 in 10.0 mi South 3.5 mph - N/A   Clear
4:53 AM 23.0 °F 18.4 °F 17.1 °F 78% 30.02 in 10.0 mi South 3.5 mph - N/A   Clear
5:53 AM 24.1 °F 17.0 °F 16.0 °F 71% 30.04 in 10.0 mi SSW 5.8 mph - N/A   Clear
6:53 AM 23.0 °F 13.9 °F 16.0 °F 74% 30.05 in 10.0 mi South 8.1 mph - N/A   Clear
7:53 AM 25.0 °F 19.3 °F 18.0 °F 75% 30.06 in 10.0 mi South 4.6 mph - N/A   Clear
8:53 AM 34.0 °F - 21.0 °F 59% 30.09 in 10.0 mi Calm Calm - N/A   Clear
9:53 AM 37.0 °F 34.5 °F 24.1 °F 59% 30.10 in 10.0 mi NNW 3.5 mph - N/A   Clear
10:53 AM 43.0 °F - 10.0 °F 26% 30.09 in 10.0 mi Calm Calm - N/A   Clear
11:53 AM 46.9 °F - -0.9 °F 14% 30.08 in 10.0 mi Calm Calm - N/A   Clear
12:53 PM 51.1 °F - -0.0 °F 12% 30.04 in 10.0 mi NNE 4.6 mph - N/A   Clear
1:53 PM 54.0 °F - 3.9 °F 13% 30.00 in 10.0 mi NNW 6.9 mph - N/A   Clear
2:53 PM 53.1 °F - 3.0 °F 13% 30.00 in 10.0 mi Calm Calm - N/A   Clear
3:53 PM 53.1 °F - -0.9 °F 11% 30.01 in 10.0 mi Calm Calm - N/A   Clear
4:53 PM 52.0 °F - 9.0 °F 18% 30.02 in 10.0 mi Variable 6.9 mph - N/A   Clear
5:53 PM 48.9 °F - 6.1 °F 18% 30.04 in 10.0 mi WSW 5.8 mph - N/A   Clear
6:53 PM 46.0 °F - 7.0 °F 20% 30.06 in 10.0 mi Calm Calm - N/A   Clear
7:53 PM 42.1 °F 39.2 °F 10.9 °F 28% 30.08 in 10.0 mi South 4.6 mph - N/A   Clear
8:53 PM 41.0 °F - 12.0 °F 31% 30.08 in 10.0 mi Calm Calm - N/A   Clear
9:53 PM 34.0 °F 28.0 °F 14.0 °F 44% 30.11 in 10.0 mi South 6.9 mph - N/A   Clear
10:53 PM 34.0 °F 28.0 °F 14.0 °F 44% 30.09 in 10.0 mi South 6.9 mph - N/A   Clear
11:53 PM 30.9 °F 27.5 °F 12.9 °F 47% 30.10 in 10.0 mi West 3.5 mph - N/A   Clear